Location: Newark
(51.3318°N, 0.0053°E)
Time: 11:48:24
(UTC+00:00)

MOZHAYETS 4 - Pass Details

Date: 01 July 2022
Orbit: 660 x 679 km, 98.2° (Epoch: 10 August)

Event Time Altitude Azimuth Distance (km) Brightness Sun altitude
Exits shadow 02:38:03 - 182° (S) 2,503 10.2 -8.2°
Reaches altitude 10° 02:39:03 10° 185° (S) 2,109 9.8 -8.1°
Maximum altitude 02:43:31 49° 260° (W) 872 8.0 -7.7°
Drops below altitude 10° 02:48:01 10° 336° (NNW) 2,115 10.7 -7.3°
Sets 02:50:19 0° 342° (NNW) 3,030 11.6 -7.1°
